Location: Marshall
(39.8477°N, 87.1868°W)
Time: 03:52:04
(UTC+00:00)

BlueWalker 3 - Pass Details

Date: 15 May 2026
Orbit: 447 x 456 km, 53.2° (Epoch: 9 June)

Event Time Altitude Azimuth Distance (km) Brightness Sun altitude
Exits shadow 05:56:35 10° 40° (NE) 1,568 5.0 -31.2°
Drops below altitude 10° 05:56:35 10° 40° (NE) 1,573 5.0 -31.2°
Sets 05:58:46 0° 47° (NE) 2,447 6.1 -31.2°
